This is the latest recevied weather packets stored in our database for station/object KI5UTS-13. If no packets are shown the sender has not sent any weather packets the latest 10 day(s).
| Time | Temp. | Humidity | Pressure | Rain* | Wind** | Luminosity | Snow |
|---|---|---|---|---|---|---|---|
| 1788375921 | 33.33° C | 68% | 1017.9 hPa | 0 mm | - | 684 W/m² | - |
| 1788375617 | 32.78° C | 70% | 1018 hPa | 0 mm | - | 484 W/m² | - |
| 1788375313 | 33.33° C | 69% | 1017.9 hPa | 0 mm | - | 80 W/m² | - |
| 1788375008 | 33.33° C | 68% | 1018 hPa | 0 mm | - | 355 W/m² | - |
| 1788374703 | 32.78° C | 69% | 1018 hPa | 0 mm | - | 862 W/m² | - |
| 1788374398 | 33.33° C | 69% | 1018.2 hPa | 0 mm | - | 331 W/m² | - |
| 1788374095 | 33.33° C | 69% | 1018.3 hPa | 0 mm | - | 207 W/m² | - |
| 1788373785 | 34.44° C | 66% | 1018 hPa | 0 mm | - | 182 W/m² | - |
| 1788373481 | 33.89° C | 66% | 1018.1 hPa | 0 mm | - | 751 W/m² | - |
| 1788373177 | 33.89° C | 65% | 1018.3 hPa | 0 mm | - | 814 W/m² | - |
| 1788372872 | 33.33° C | 70% | 1018.3 hPa | 0 mm | - | 818 W/m² | - |
| 1788372566 | 34.44° C | 66% | 1018.1 hPa | 0 mm | - | 212 W/m² | - |
| 1788372262 | 35° C | 64% | 1018.4 hPa | 0 mm | - | 854 W/m² | - |
| 1788371957 | 33.89° C | 68% | 1018.5 hPa | 0 mm | - | 808 W/m² | - |
| 1788371652 | 33.89° C | 67% | 1018.6 hPa | 0 mm | - | 795 W/m² | - |
| 1788371348 | 34.44° C | 67% | 1018.3 hPa | 0 mm | - | 766 W/m² | - |
| 1788371045 | 33.89° C | 66% | 1018.7 hPa | 0 mm | - | 757 W/m² | - |
| 1788370734 | 34.44° C | 65% | 1018.7 hPa | 0 mm | - | 881 W/m² | - |
| 1788370434 | 34.44° C | 66% | 1018.8 hPa | 0 mm | - | 863 W/m² | - |
| 1788370128 | 34.44° C | 68% | 1018.8 hPa | 0 mm | - | 854 W/m² | - |
| 1788369822 | 33.89° C | 67% | 1019 hPa | 0 mm | - | 862 W/m² | - |
| 1788369518 | 32.22° C | 71% | 1019 hPa | 0 mm | - | 783 W/m² | - |
| 1788369213 | 32.78° C | 69% | 1019 hPa | 0 mm | - | 165 W/m² | - |
| 1788368910 | 33.33° C | 69% | 1019.2 hPa | 0 mm | - | 195 W/m² | - |
| 1788368604 | 32.78° C | 71% | 1019.2 hPa | 0 mm | - | 433 W/m² | - |
* Rain latest hour (hover to see other rain measurements)
** Current wind speed in m/s (hover to see current wind gust speed)